Location: Palomar Mountain Lodge
(33.3110°N, 116.8495°W)
Time: 00:45:30
(UTC-07:00)

Daily predictions for brighter satellites

Satellite Brightness Start Highest point End
(mag) Time Altitude Azimuth Time Altitude Azimuth Time Altitude Azimuth
Cosmos 2082 Rocket 3.5 00:12:59 34° NE 00:12:59 34° NE 00:16:10 10° NNE
Cosmos 1833 Rocket 4.2 00:15:43 29° NE 00:15:43 29° NE 00:18:32 10° NNE
S3M 4.5 00:15:43 10° N 00:20:29 56° NNW 00:20:29 56° NNW
CZ-2C R/B 4.0 00:40:00 10° NNE 00:43:13 34° NE 00:43:13 34° NE
H-2A ROCKET BODY 4.3 00:03:02 10° WSW 00:45:56 59° SSW 00:45:56 59° SSW
CZ-4C R/B 4.3 00:47:23 16° WNW 00:49:07 18° NW 00:53:03 10° N
CENTAUR R/B 3.1 00:50:58 50° NE 00:50:58 50° NE 00:55:47 10° NNE
CZ-2C R/B 3.9 01:37:09 50° N 01:37:09 50° N 01:41:19 10° N
Cosmos 1980 Rocket 3.0 01:30:35 10° NNW 01:34:44 48° N 01:34:44 48° N
Lacrosse 5 3.6 01:31:49 10° NNW 01:34:10 27° NNW 01:34:10 27° NNW
Cosmos 2082 Rocket 4.4 01:54:48 15° WNW 01:55:08 15° NW 01:58:17 10° NNW
Cosmos 1697 Rocket 4.2 01:49:46 10° NW 01:52:32 28° NW 01:52:32 28° NW
Lacrosse 5 rocket 3.5 01:51:39 10° NNW 01:54:44 27° NNE 01:54:44 27° NNE
ATLAS 5 CENTAUR R/B 3.3 02:00:27 32° ENE 02:00:27 32° ENE 02:03:29 10° NE
Cosmos 1745 Rocket 4.2 02:04:50 66° NW 02:04:50 66° NW 02:10:30 10° N
Nadezhda 1 Rocket 3.9 02:07:54 10° N 02:13:30 76° NNW 02:13:30 76° NNW
USA 215 3.2 02:07:44 10° NE 02:14:09 70° SE 02:14:09 70° SE
Cosmos 1709 Rocket 4.2 02:15:16 59° ESE 02:15:34 60° E 02:21:42 10° NNE
ADEOS 4.2 02:29:03 10° NNE 02:34:05 47° E 02:34:08 47° ESE
SEDSat Delta rocket 4.1 02:37:42 61° SE 02:37:42 61° SE 02:43:28 10° ESE
CENTAUR R/B 4.5 02:38:07 14° WNW 02:40:44 18° NW 02:45:07 10° N
SL-08 R/B 3.5 02:42:10 69° NE 02:42:10 69° NE 02:46:45 10° N
SL-16 R/B 2.1 02:36:38 10° NNW 02:42:14 87° NNW 02:42:14 87° NNW
H-2A R/B 2.3 02:42:28 77° SW 02:42:48 80° S 03:00:51 10° E
Cosmos 2322 Rocket 2.3 02:46:45 10° NNW 02:51:40 61° WNW 02:51:40 61° WNW
BREEZE-M DEB (TANK) 4.1 02:56:28 24° NNW 02:56:53 25° NNW 03:01:44 10° NE
CZ-2D R/B 3.4 02:57:14 10° NE 03:01:57 33° E 03:04:02 25° SE
Cosmos 1703 Rocket 4.0 02:57:43 10° N 03:01:58 53° E 03:02:15 51° E
ERS-2 4.2 02:59:46 10° NNW 03:01:26 21° NNW 03:01:26 21° NNW
USA 229 DEB 3.6 03:11:36 50° SSW 03:13:40 87° ESE 03:20:40 10° NNE
USA 229 3.6 03:11:42 50° SSW 03:13:46 86° ESE 03:20:46 10° NNE
OAO 3 Rocket 3.0 03:13:47 80° NW 03:13:59 85° N 03:18:40 10° E
NPP 4.4 03:11:49 10° N 03:16:42 36° WNW 03:17:03 36° W
Okean 1-7 3.9 03:12:39 10° N 03:16:52 46° E 03:18:25 32° SE
Cosmos 2298 Rocket 3.9 03:19:16 61° SSW 03:20:14 85° WNW 03:25:35 10° NNE
Cosmos 304 Rocket 3.6 03:15:26 10° NNW 03:20:15 75° WSW 03:20:35 71° SW
Cosmos 2360 Rocket 2.3 03:15:20 10° NNW 03:20:58 71° ENE 03:25:45 14° SSE
Cosmos 2227 Rocket 4.3 03:18:03 10° SE 03:21:51 19° E 03:25:41 10° ENE
Cosmos 2181 Rocket 4.1 03:16:13 10° NNW 03:22:13 55° W 03:23:29 47° SW
Cosmos 923 Rocket 4.4 03:18:20 10° NNW 03:22:49 43° W 03:22:49 43° W
SL-08 ROCKET BODY 4.5 03:22:01 36° S 03:24:36 76° E 03:30:43 10° N
Spot 4 Rocket 4.1 03:23:05 10° N 03:28:08 59° WNW 03:29:03 51° WSW
Cosmos 1680 Rocket 3.6 03:26:16 10° NNW 03:31:18 51° WSW 03:31:38 50° WSW
CRYOSAT 2 4.3 03:28:59 10° N 03:33:52 86° E 03:35:28 43° S
DELTA 2 R/B (1) 4.0 03:34:01 40° S 03:35:16 47° SSE 03:40:36 10° ENE
UNK 4.2 03:33:10 19° SSE 03:36:21 59° ENE 03:40:51 10° N
GOES 2 Rocket 3.7 03:37:30 41° S 03:37:35 41° S 03:41:46 10° ESE
Cosmos 2219 3.3 03:36:11 43° SW 03:37:57 66° WNW 03:43:41 10° NNE
Cosmos 1933 3.8 03:35:59 10° NNW 03:39:23 43° WNW 03:39:23 43° WNW
Cosmos 2074 Rocket 4.1 03:40:32 37° SW 03:42:52 60° W 03:49:03 10° N
ATLAS 5 CENTAUR R/B 3.6 03:42:00 17° WNW 03:43:36 19° NW 03:47:17 10° N
Cosmos 2322 3.6 03:38:11 10° NNW 03:43:53 73° WSW 03:48:35 15° S
Resurs 1-4 Rocket 2.0 03:38:56 10° NNE 03:44:16 90° WSW 03:46:46 33° SSW
ARIANE 5 R/B 2.7 03:44:26 10° N 03:49:22 53° WNW 03:51:00 37° SW
Cosmos 2184 Rocket 4.2 03:48:45 33° SW 03:51:24 53° W 03:57:35 10° N
ATLAS CENTAUR R/B 2.1 03:47:26 10° NNW 03:51:56 57° ENE 03:56:02 10° SE
Meteor 1-26 Rocket 4.1 03:48:27 10° NNW 03:53:57 72° W 03:57:45 21° S
Cosmos 2297 Rocket 4.0 03:49:52 10° SSE 03:54:23 25° ESE 03:58:55 10° NE
Okean O Rocket 2.4 03:51:07 10° NNE 03:55:22 48° E 03:58:30 17° S
Cosmos 1898 Rocket 3.9 03:54:02 34° WSW 03:55:42 45° WNW 04:00:39 10° N
USA 215 4.5 03:51:15 10° NNE 03:56:51 31° NW 04:01:30 14° W
IRS-1D 3.9 03:52:39 10° N 03:57:47 51° WNW 04:00:00 31° SW
Cosmos 1937 Rocket 3.6 03:56:31 33° SW 03:58:47 62° WNW 04:04:02 10° N
Cosmos 1892 2.8 03:59:42 27° S 04:01:41 74° E 04:05:32 10° N
Cosmos 1340 Rocket 3.9 03:59:00 14° SSE 04:02:11 42° E 04:05:59 10° NNE
SL-16 R/B 2.5 03:56:24 12° S 04:02:17 69° WSW 04:08:32 10° NNW
BREEZE-M DEB (TANK) 3.9 03:55:46 22° WSW 04:03:51 64° NW 04:07:52 10° NE
FALCON 9 R/B 0.1 04:04:22 67° NNW 04:04:28 69° N 04:06:48 10° E
Cosmos 389 Rocket 2.7 04:02:34 10° N 04:06:16 73° E 04:09:30 13° SSE
Cosmos 2333 Rocket 4.3 04:01:46 10° N 04:06:40 29° ENE 04:11:33 10° ESE
Cosmos 2082 4.5 04:02:28 13° S 04:07:17 49° ESE 04:12:47 10° NNE
CZ-2D R/B 3.3 04:08:09 10° N 04:12:14 82° WNW 04:14:38 23° SSW
ATLAS 2A CENTAUR R/B 4.1 04:08:13 22° WSW 04:14:01 64° SSE 05:12:06 10° E
COSMOS 2428 2.6 04:11:42 10° NNW 04:17:23 79° WSW 04:23:02 10° SSE
IRS-1C Rocket 4.0 04:12:29 10° N 04:17:46 80° WNW 04:22:02 16° SSW
PAYLOAD B 4.3 04:15:40 10° NNE 04:21:12 78° ESE 04:26:44 10° S
SEDSat Delta rocket 4.5 04:17:53 14° W 04:23:09 39° SSW 04:29:15 10° SE
ASTRO E2 3.8 04:22:04 22° SSW 04:23:45 31° SSE 04:27:18 10° E
Cosmos 220 Rocket 4.4 04:22:33 24° SW 04:24:44 45° WNW 04:28:52 10° N
Okean-O 4.1 04:23:39 10° NNE 04:27:45 36° E 04:31:48 10° SSE
UNKNOWN OBJECT B 3.7 04:25:04 10° N 04:28:31 32° WNW 04:30:26 20° WSW
Cosmos 2237 Rocket 3.8 04:23:53 10° N 04:29:10 39° ENE 04:34:27 10° SE
Cosmos 807 4.3 04:26:20 10° N 04:30:07 73° W 04:33:14 10° S
Coronas F rocket 1.2 04:33:16 19° SSW 04:35:03 71° W 04:37:46 10° N
Cosmos 1733 Rocket 3.6 04:32:47 18° SW 04:35:36 39° W 04:39:43 10° N
NOSS 3-1 (C) 3.4 04:32:35 16° SW 04:37:14 69° WNW 04:43:32 10° NNE
Cosmos 2237 4.5 04:34:13 10° NNW 04:39:40 47° WSW 04:45:06 10° S
Cosmos 1782 Rocket 4.5 04:35:51 10° SSE 04:40:01 48° E 04:44:12 10° NNE
Cosmos 1238 Rocket 4.0 04:34:13 10° N 04:40:47 84° E 04:46:23 10° S
Cosmos 2219 Rocket 2.3 04:35:49 10° NNW 04:41:26 78° ENE 04:46:59 10° SSE
CZ-2D R/B 3.3 04:37:36 10° NNW 04:41:50 25° WNW 04:45:23 13° WSW
GPS 2-05 Rocket1 2.6 04:39:21 10° WNW 04:42:39 80° SSW 04:46:03 10° ESE
SME Rocket 4.0 04:36:12 10° S 04:43:05 52° WSW 04:47:48 10° NNW
GPS 2-04 Rocket1 3.1 04:43:17 16° SW 04:45:39 39° SSE 04:48:55 10° E
Okean 2 Rocket 3.8 04:47:43 10° S 04:52:04 58° E 04:56:29 10° NNE
Meteor 2-10 Rocket 3.8 04:49:21 10° NNW 04:54:15 47° W 04:59:17 10° SSW
MOZ.5/SAFIR/RUBIN 5/SL-8 3.8 04:51:21 10° S 04:55:59 68° WSW 05:00:41 10° NNW
OAO 3 Rocket 3.6 04:53:01 10° W 04:57:20 38° SSW 05:01:42 10° SE
ADEOS II 3.0 04:54:27 10° NNE 04:59:33 49° E 05:04:36 10° S
Meteor 2-6 Rocket 4.2 04:54:26 10° NNW 04:59:51 64° W 05:05:24 10° S
SL-16 R/B 4.4 04:55:19 10° N 05:00:17 31° ENE 05:05:14 10° ESE
Cosmos 372 Rocket 4.2 04:55:54 10° S 05:01:04 78° ESE 05:06:19 10° NNE
Meteor 1-27 Rocket 3.9 04:58:06 10° N 05:04:02 85° W 05:09:58 10° S
Cosmos 2360 Rocket 3.9 05:02:25 10° WNW 05:04:13 12° W 05:06:03 10° WSW
Sich 1 Rocket 4.4 05:00:53 10° SW 05:04:46 31° W 05:08:41 10° NNW
Cosmos 1378 Rocket 3.5 05:00:49 10° N 05:05:16 81° W 05:09:41 10° S
Cosmos 2227 Rocket 2.6 05:00:04 10° SW 05:05:27 46° WNW 05:10:53 10° N
NOSS 0 Rocket 3.9 05:00:03 10° NNW 05:06:11 75° WSW 05:12:17 10° SSE
Okean 3 3.7 05:02:36 10° N 05:06:49 74° E 05:11:01 10° S
Cosmos 1908 Rocket 4.3 05:09:14 10° SW 05:13:15 34° W 05:17:15 10° NNW
Cosmos 1975 Rocket 3.3 05:09:25 10° N 05:13:55 82° E 05:18:21 10° S
Cosmos 1606 2.8 05:11:16 10° NNW 05:14:57 56° W 05:18:39 10° S
CZ-4B R/B 4.1 05:12:09 10° N 05:16:57 32° WNW 05:21:50 10° SW
